Home > Time Zones > World Clock > Weather > France > Lyon > Past weeks

Flag for France Weather past 2 weeks in Lyon, France

Now
61 °F

Clear.


Feels Like: 61 °F
Forecast: 67 / 94 °F
Wind: 1 mph from West

Location: Lyon / Bron

Current Time: Aug 2, 2015 at 9:01:51 AM

Latest Report: Aug 2, 2015 at 8:00 AM


Visibility: 6 mi

Pressure: 30.07 "Hg

Humidity: 94%

Dew point: 59 °F

Location of LyonLocation

Historic Weather in Lyon — Graph

°F

Lyon temperature yesterday

Maximum temperature yesterday: 75 °F (at 4:00 PM)
Minimum temperature yesterday: 61 °F (at 5:30 AM)
Average temperature yesterday: 67 °F

Past Weeks' High & Low Weather Summary

 TemperatureHumidityPressure
High97 °F (Jul 21, 5:30 PM)94% (Aug 2, 1:30 AM)30.12 "Hg (Aug 2, 1:30 AM)
Low54 °F (Jul 30, 6:30 AM)23% (Jul 21, 8:00 PM)29.71 "Hg (Jul 24, 5:00 PM)
Average74 °F52%29.96 "Hg
* Reported Jul 18 8:00 AM — Aug 2 8:00 AM, Lyon, Weather by CustomWeather, © 2015

Note: Actual official high and low records may vary slightly from our data, if they occured in-between our weather recording intervals... More about our weather records

Advertising

Lyon weather history for previous 24 hours

 ConditionsComfort  
Time TempWeatherWind HumidityBarometerVisibility
8:00 AM
Sun, Aug 2
61 °FClear.1 mph94%30.07 "Hg6 mi
7:30 AM59 °FClear.No wind94%30.07 "Hg6 mi
7:00 AM59 °FClear.2 mph94%30.07 "Hg5 mi
6:30 AM59 °FClear.1 mph94%30.07 "Hg6 mi
6:00 AM59 °FClear.1 mph88%30.07 "Hg6 mi
5:30 AM59 °FClear.1 mph94%30.07 "Hg5 mi
5:00 AM59 °FClear.No wind94%30.07 "Hg5 mi
4:30 AM61 °FClear.2 mph88%30.07 "Hg6 mi
4:00 AM61 °FClear.2 mph94%30.07 "Hg10 mi
3:30 AM61 °FClear.2 mph94%30.07 "Hg10 mi
3:00 AM63 °FClear.2 mph94%30.07 "Hg10 mi
2:30 AM63 °FClear.No wind88%30.07 "Hg10 mi
2:00 AM63 °FClear.No wind94%30.07 "Hg10 mi
1:30 AM63 °FClear.2 mph94%30.07 "Hg10 mi
1:00 AM64 °FClear.1 mph83%30.07 "Hg10 mi
12:30 AM64 °FClear.2 mph88%30.07 "Hg10 mi
12:00 AM66 °FClear.2 mph83%30.07 "Hg10 mi
11:30 PM
Sat, Aug 1
68 °FClear.3 mph78%30.07 "Hg10 mi
11:00 PM68 °FClear.2 mph78%30.07 "Hg10 mi
10:30 PM68 °FClear.3 mph78%30.04 "Hg10 mi
10:00 PM70 °FMore clouds than sun.5 mph69%30.04 "HgN/A
9:30 PM70 °FMostly cloudy.7 mph73%30.04 "HgN/A
9:00 PM70 °FLight rain. Overcast.7 mph69%30.04 "HgN/A
8:30 PM72 °FLight rain. Mostly cloudy.7 mph65%30.01 "HgN/A
8:00 PM72 °FPartly sunny.7 mph61%30.01 "HgN/A
7:30 PM73 °FMostly cloudy.7 mph57%30.01 "HgN/A
7:00 PM73 °FMostly cloudy.5 mph57%30.01 "HgN/A
6:30 PM73 °FBroken clouds.6 mph57%30.01 "HgN/A
6:00 PM75 °FCloudy.5 mph54%29.98 "HgN/A
5:00 PM75 °FScattered clouds.5 mph54%29.98 "HgN/A
4:30 PM75 °FScattered clouds.6 mph54%29.98 "HgN/A
4:00 PM75 °FPartly sunny.5 mph57%29.98 "HgN/A
3:30 PM73 °FPartly sunny.5 mph61%29.98 "HgN/A
3:00 PM72 °FOvercast.6 mph65%30.01 "HgN/A
2:30 PM72 °FPartly sunny.5 mph65%30.01 "HgN/A
2:00 PM70 °FMostly cloudy.5 mph69%30.01 "HgN/A
1:30 PM68 °FMore clouds than sun.2 mph69%30.01 "HgN/A
1:00 PM68 °FPartly sunny.No wind69%30.01 "HgN/A
12:30 PM68 °FBroken clouds.3 mph69%30.01 "HgN/A
12:00 PM66 °FBroken clouds.3 mph78%30.01 "HgN/A
11:30 AM66 °FCloudy.3 mph78%29.98 "HgN/A
11:00 AM66 °FMore clouds than sun.2 mph78%29.98 "HgN/A
10:30 AM64 °FMostly cloudy.2 mph78%29.98 "HgN/A
10:00 AM64 °FSunny.2 mph78%29.98 "Hg10 mi
9:30 AM63 °FMostly cloudy.No wind83%29.98 "HgN/A
9:00 AM63 °FPartly sunny.No wind88%29.98 "HgN/A
Weather by CustomWeather, © 2015

See weather overviewHow to use our weather pages